MDT,Max TemperatureF,Mean TemperatureF,Min TemperatureF,Max Dew PointF,MeanDew PointF,Min DewpointF,Max Humidity, Mean Humidity, Min Humidity, Max Sea Level PressureIn, Mean Sea Level PressureIn, Min Sea Level PressureIn, Max VisibilityMiles, Mean VisibilityMiles, Min VisibilityMiles, Max Wind SpeedMPH, Mean Wind SpeedMPH, Max Gust SpeedMPH,PrecipitationIn, CloudCover, Events, WindDirDegrees
2013-8-1,100,84,67,62,58,54,73,49,25,30.22,29.91,29.74,10,10,9,37,12,44,0.01,1,Rain-Thunderstorm,198
2013-8-2,98,81,64,65,58,52,84,53,22,29.84,29.75,29.72,10,10,8,23,8,32,0.00,0,,40
2013-8-3,79,72,64,70,66,63,90,76,62,30.19,30.00,29.84,9,7,2,22,11,26,0.67,6,Rain-Thunderstorm,73
2013-8-4,88,76,64,71,65,63,93,72,51,30.20,30.05,29.86,10,8,1,28,5,32,0.10,5,Rain-Thunderstorm,71
2013-8-5,96,81,66,72,62,53,93,59,24,30.06,29.83,29.73,10,9,5,24,6,30,0.00,0,,183
2013-8-6,96,82,67,67,61,52,90,57,23,29.94,29.82,29.69,10,8,2,23,7,29,T,3,Rain-Thunderstorm,75
2013-8-7,81,72,62,64,61,59,93,74,54,30.09,29.94,29.78,10,8,0,28,9,35,1.32,4,Fog-Rain-Thunderstorm,93
2013-8-8,74,68,62,64,61,60,93,79,64,30.08,29.99,29.85,10,8,2,20,7,28,0.08,8,Rain,39
2013-8-9,78,70,61,63,60,56,97,73,48,30.18,30.09,30.01,10,8,3,16,7,21,T,4,Rain,91
2013-8-10,85,71,56,64,60,55,93,70,47,30.15,30.06,29.97,10,9,5,23,10,28,0.00,0,,143
2013-8-11,88,74,59,61,55,49,90,58,26,30.02,29.95,29.88,10,10,8,12,5,15,0.00,0,,207
2013-8-12,88,73,57,66,60,53,87,62,36,30.15,30.03,29.90,10,7,2,25,7,32,0.11,4,Rain-Thunderstorm,48
2013-8-13,81,69,57,63,59,56,93,69,45,30.08,30.04,30.00,10,10,8,16,7,20,0.00,0,,100
2013-8-14,83,72,61,66,62,58,93,75,56,30.19,30.06,29.94,10,7,2,22,9,28,0.01,3,Rain-Thunderstorm,110
2013-8-15,84,70,55,65,61,55,100,76,51,30.17,30.00,29.91,10,7,2,18,7,24,0.00,1,,107
2013-8-16,91,75,58,64,59,56,97,65,32,30.11,29.99,29.92,10,6,1,22,6,29,0.00,0,,110
2013-8-17,89,74,59,66,63,57,97,68,38,30.11,29.97,29.86,9,6,2,20,8,24,0.01,1,,81
2013-8-18,94,78,61,64,62,57,93,63,33,30.07,29.94,29.81,10,5,1,23,7,29,0.00,1,,91
2013-8-19,94,77,59,63,60,55,97,64,30,30.06,29.89,29.85,9,8,2,17,6,21,0.00,0,,139
2013-8-20,98,78,58,63,58,47,93,57,20,30.03,29.84,29.77,10,8,0,21,8,26,0.00,0,,137
2013-8-21,102,82,62,56,51,45,68,42,15,29.84,29.80,29.75,10,10,7,29,12,37,0.00,0,,195
2013-8-22,92,80,68,63,59,50,78,57,36,29.94,29.88,29.80,10,9,7,25,9,35,0.00,0,,17
2013-8-23,97,82,66,59,52,45,73,45,17,29.95,29.86,29.77,10,10,9,23,12,30,0.00,0,,203
2013-8-24,98,83,67,54,51,47,59,38,17,29.91,29.83,29.79,10,10,10,29,18,38,0.00,0,,187
2013-8-25,98,85,72,56,53,48,57,39,21,29.97,29.92,29.88,10,10,10,29,18,38,0.00,0,,189
2013-8-26,100,87,74,56,53,48,53,36,18,29.96,29.90,29.84,10,10,9,28,17,36,0.00,0,,193
2013-8-27,99,82,65,53,50,45,63,40,16,29.91,29.85,29.79,10,10,10,18,9,26,0.00,0,,166
2013-8-28,99,79,59,55,49,42,75,45,15,29.90,29.85,29.80,10,10,10,20,9,24,0.00,0,,149
2013-8-29,102,81,60,51,46,35,60,36,11,29.92,29.87,29.82,10,10,10,16,6,21,0.00,0,,105
2013-8-30,102,80,57,49,45,38,67,39,11,29.94,29.87,29.80,10,10,8,16,7,20,0.00,0,,161
2013-8-31,98,82,65,64,59,50,87,58,28,30.10,29.87,29.71,10,10,7,38,10,46,0.06,3,Rain-Thunderstorm,73